• en Belgique
  • Liste des pays
  • À 7 jours
  • Température de l'eau
  • Carte satellitaire
  • Carte météo
  • Widgets météo
  • user-avatar
    Se connecter

    Météo par heure à Bruxelles

    Ce jour, 22 Janvier, Lundi

    Heure Température Précipitation Vent Pression Humidité
    00:00 +3°C° 0 mm 4 m/s 752 mmHg 92%
    01:00 +4°C° 0,1 mm 4 m/s 752 mmHg 93%
    02:00 +5°C° 0,1 mm 5 m/s 752 mmHg 94%
    03:00 +6°C° 0,1 mm 5 m/s 751 mmHg 96%
    04:00 +7°C° 0,1 mm 5 m/s 751 mmHg 96%
    05:00 +7°C° 0,1 mm 4 m/s 751 mmHg 95%
    06:00 +7°C° 0,1 mm 4 m/s 751 mmHg 95%
    07:00 +7°C° 0,1 mm 4 m/s 752 mmHg 95%
    08:00 +7°C° 0,1 mm 4 m/s 752 mmHg 95%
    09:00 +8°C° 0,1 mm 3 m/s 752 mmHg 95%
    10:00 +7°C° 0 mm 4 m/s 753 mmHg 91%
    11:00 +7°C° 0 mm 4 m/s 753 mmHg 87%
    12:00 +8°C° 0 mm 4 m/s 754 mmHg 83%
    13:00 +8°C° 0 mm 4 m/s 754 mmHg 82%
    14:00 +7°C° 0 mm 4 m/s 755 mmHg 81%
    15:00 +7°C° 0 mm 5 m/s 756 mmHg 80%
    16:00 +6°C° 0 mm 4 m/s 757 mmHg 84%
    17:00 +6°C° 0 mm 4 m/s 757 mmHg 87%
    18:00 +5°C° 0 mm 3 m/s 758 mmHg 91%
    19:00 +4°C° 0 mm 3 m/s 759 mmHg 92%
    20:00 +4°C° 0 mm 3 m/s 759 mmHg 92%
    21:00 +4°C° 0 mm 3 m/s 760 mmHg 93%
    22:00 +4°C° 0 mm 3 m/s 761 mmHg 93%
    23:00 +4°C° 0 mm 3 m/s 761 mmHg 93%

    Demain, 23 Janvier, Mardi

    Heure Température Précipitation Vent Pression Humidité
    00:00 +3°C° 0 mm 3 m/s 762 mmHg 94%
    01:00 +3°C° 0 mm 3 m/s 762 mmHg 94%
    02:00 +3°C° 0 mm 3 m/s 762 mmHg 94%
    03:00 +3°C° 0 mm 3 m/s 762 mmHg 94%
    04:00 +3°C° 0 mm 3 m/s 762 mmHg 94%
    05:00 +3°C° 0 mm 4 m/s 762 mmHg 94%
    06:00 +3°C° 0 mm 4 m/s 762 mmHg 94%
    07:00 +3°C° 0 mm 4 m/s 762 mmHg 94%
    08:00 +3°C° 0 mm 5 m/s 762 mmHg 93%
    09:00 +5°C° 0 mm 5 m/s 762 mmHg 92%
    10:00 +4°C° 0,2 mm 6 m/s 762 mmHg 90%
    11:00 +5°C° 0,2 mm 6 m/s 762 mmHg 88%
    12:00 +6°C° 0,2 mm 7 m/s 761 mmHg 85%
    13:00 +6°C° 0,7 mm 7 m/s 761 mmHg 86%
    14:00 +6°C° 0,7 mm 7 m/s 761 mmHg 87%
    15:00 +8°C° 0,7 mm 7 m/s 760 mmHg 88%
    16:00 +8°C° 0,2 mm 7 m/s 760 mmHg 89%
    17:00 +9°C° 0,2 mm 7 m/s 760 mmHg 90%
    18:00 +9°C° 0,2 mm 7 m/s 760 mmHg 90%
    19:00 +9°C° 0,1 mm 7 m/s 760 mmHg 91%
    20:00 +10°C° 0,1 mm 7 m/s 760 mmHg 91%
    21:00 +10°C° 0,1 mm 7 m/s 761 mmHg 92%
    22:00 +10°C° 0 mm 6 m/s 760 mmHg 92%
    23:00 +10°C° 0 mm 6 m/s 760 mmHg 92%

    Après-demain, 24 Janvier, Mercredi

    Heure Température Précipitation Vent Pression Humidité
    00:00 +10°C° 0 mm 6 m/s 760 mmHg 92%
    01:00 +10°C° 0,1 mm 6 m/s 760 mmHg 92%
    02:00 +11°C° 0,1 mm 6 m/s 760 mmHg 91%
    03:00 +11°C° 0,1 mm 6 m/s 760 mmHg 91%
    04:00 +11°C° 0,1 mm 7 m/s 759 mmHg 91%
    05:00 +11°C° 0,1 mm 7 m/s 759 mmHg 90%
    06:00 +11°C° 0,1 mm 8 m/s 759 mmHg 90%
    07:00 +11°C° 0,1 mm 8 m/s 758 mmHg 89%
    08:00 +11°C° 0,1 mm 9 m/s 758 mmHg 87%
    09:00 +11°C° 0,1 mm 9 m/s 758 mmHg 86%
    10:00 +12°C° 0 mm 10 m/s 757 mmHg 83%
    11:00 +12°C° 0 mm 10 m/s 757 mmHg 80%
    12:00 +13°C° 0 mm 11 m/s 756 mmHg 77%
    13:00 +12°C° 0 mm 11 m/s 756 mmHg 76%
    14:00 +12°C° 0 mm 10 m/s 755 mmHg 76%
    15:00 +12°C° 0 mm 10 m/s 755 mmHg 76%
    16:00 +12°C° 0,1 mm 10 m/s 755 mmHg 77%
    17:00 +11°C° 0,1 mm 10 m/s 755 mmHg 78%
    18:00 +11°C° 0,1 mm 10 m/s 755 mmHg 79%
    19:00 +11°C° 0,9 mm 8 m/s 755 mmHg 81%
    20:00 +10°C° 0,9 mm 7 m/s 755 mmHg 83%
    21:00 +10°C° 0,9 mm 6 m/s 755 mmHg 85%
    22:00 +9°C° 0,9 mm 5 m/s 755 mmHg 86%
    23:00 +9°C° 0,9 mm 5 m/s 755 mmHg 87%

    25 Janvier, Jeudi

    Heure Température Précipitation Vent Pression Humidité
    00:00 +8°C° 0,9 mm 4 m/s 755 mmHg 88%
    01:00 +8°C° 1 mm 4 m/s 754 mmHg 89%
    02:00 +7°C° 1 mm 4 m/s 754 mmHg 89%
    03:00 +7°C° 1 mm 4 m/s 754 mmHg 90%
    04:00 +8°C° 0,7 mm 3 m/s 754 mmHg 90%
    05:00 +7°C° 0,7 mm 3 m/s 753 mmHg 90%
    06:00 +7°C° 0,7 mm 3 m/s 753 mmHg 90%
    07:00 +6°C° 0,5 mm 4 m/s 753 mmHg 90%
    08:00 +6°C° 0,5 mm 4 m/s 753 mmHg 89%
    09:00 +7°C° 0,5 mm 4 m/s 753 mmHg 89%
    10:00 +7°C° 0,3 mm 6 m/s 753 mmHg 85%
    11:00 +6°C° 0,3 mm 7 m/s 753 mmHg 81%
    12:00 +7°C° 0,3 mm 8 m/s 753 mmHg 78%
    13:00 +8°C° 0,1 mm 7 m/s 753 mmHg 76%
    14:00 +8°C° 0,1 mm 5 m/s 753 mmHg 74%
    15:00 +8°C° 0,1 mm 4 m/s 754 mmHg 72%
    16:00 +7°C° 0,1 mm 4 m/s 754 mmHg 74%
    17:00 +6°C° 0,1 mm 5 m/s 754 mmHg 77%
    18:00 +5°C° 0,1 mm 5 m/s 755 mmHg 79%
    19:00 +5°C° 0 mm 5 m/s 755 mmHg 80%
    20:00 +5°C° 0 mm 5 m/s 755 mmHg 81%
    21:00 +5°C° 0 mm 5 m/s 755 mmHg 82%
    22:00 +3°C° 0 mm 5 m/s 756 mmHg 83%
    23:00 +3°C° 0 mm 5 m/s 756 mmHg 84%

    26 Janvier, Vendredi

    Heure Température Précipitation Vent Pression Humidité
    00:00 +4°C° 0 mm 4 m/s 756 mmHg 85%
    01:00 +4°C° 0 mm 4 m/s 756 mmHg 86%
    02:00 +3°C° 0 mm 4 m/s 756 mmHg 88%
    03:00 +3°C° 0 mm 4 m/s 756 mmHg 89%
    04:00 +3°C° 0 mm 4 m/s 757 mmHg 90%
    05:00 +3°C° 0 mm 4 m/s 757 mmHg 91%
    06:00 +1°C° 0 mm 4 m/s 757 mmHg 92%
    07:00 +3°C° 0 mm 4 m/s 758 mmHg 91%
    08:00 +3°C° 0 mm 4 m/s 758 mmHg 90%
    09:00 +3°C° 0 mm 4 m/s 759 mmHg 88%
    10:00 +4°C° 0 mm 4 m/s 759 mmHg 83%
    11:00 +5°C° 0 mm 5 m/s 760 mmHg 77%
    12:00 +7°C° 0 mm 5 m/s 760 mmHg 71%
    13:00 +6°C° 0 mm 5 m/s 760 mmHg 72%
    14:00 +6°C° 0 mm 4 m/s 761 mmHg 73%
    15:00 +6°C° 0 mm 4 m/s 761 mmHg 74%
    16:00 +5°C° 0 mm 4 m/s 762 mmHg 78%
    17:00 +5°C° 0 mm 3 m/s 763 mmHg 82%
    18:00 +4°C° 0 mm 3 m/s 763 mmHg 86%
    19:00 +5°C° 0 mm 2 m/s 764 mmHg 86%
    20:00 +5°C° 0 mm 2 m/s 765 mmHg 87%
    21:00 +5°C° 0 mm 2 m/s 765 mmHg 87%
    22:00 +4°C° 0 mm 2 m/s 766 mmHg 89%
    23:00 +4°C° 0 mm 2 m/s 766 mmHg 90%

    27 Janvier, Samedi

    Heure Température Précipitation Vent Pression Humidité
    00:00 +3°C° 0 mm 2 m/s 767 mmHg 92%
    01:00 +3°C° 0 mm 2 m/s 767 mmHg 92%
    02:00 +3°C° 0 mm 2 m/s 768 mmHg 92%
    03:00 +3°C° 0 mm 2 m/s 768 mmHg 93%
    04:00 +2°C° 0 mm 2 m/s 768 mmHg 93%
    05:00 +2°C° 0 mm 2 m/s 769 mmHg 93%
    06:00 +3°C° 0 mm 1 m/s 769 mmHg 93%
    07:00 +3°C° 0 mm 1 m/s 770 mmHg 92%
    08:00 +4°C° 0 mm 1 m/s 771 mmHg 91%
    09:00 +4°C° 0 mm 1 m/s 771 mmHg 90%
    10:00 +5°C° 0 mm 1 m/s 771 mmHg 85%
    11:00 +6°C° 0 mm 1 m/s 772 mmHg 80%
    12:00 +8°C° 0 mm 1 m/s 772 mmHg 76%
    13:00 +8°C° 0 mm 1 m/s 772 mmHg 75%
    14:00 +8°C° 0 mm 1 m/s 772 mmHg 75%
    15:00 +8°C° 0 mm 1 m/s 772 mmHg 74%
    16:00 +6°C° 0 mm 2 m/s 773 mmHg 79%
    17:00 +5°C° 0 mm 2 m/s 773 mmHg 83%
    18:00 +4°C° 0 mm 2 m/s 773 mmHg 87%
    19:00 +3°C° 0 mm 2 m/s 774 mmHg 88%
    20:00 +3°C° 0 mm 2 m/s 774 mmHg 89%
    21:00 +2°C° 0 mm 3 m/s 774 mmHg 90%
    22:00 +2°C° 0 mm 3 m/s 774 mmHg 89%
    23:00 +1°C° 0 mm 3 m/s 774 mmHg 89%
    Voir plus